伽利略0208星导航星座 (GSAT0208 (GALILEO 11))

导读 | 豆包AI

GSAT0208即GALILEO 11,又名Andriana,是欧盟伽利略全球卫星导航系统的全运行能力(FOC)批次卫星。该卫星由OHB集团负责平台研发、萨里卫星技术有限公司提供载荷,发射质量733kg,设计寿命12年,于2015年12月17日搭载联盟ST-B Fregat-MT火箭从圭亚那航天中心发射升空,进入倾角56°、高度约23616km的中圆地球轨道,国际卫星标识符为2015-079B,是伽利略星座组网的重要卫星之一,用于提升全球导航定位服务的覆盖精度与可靠性。

基本信息
目录编号:
41175
目录名称:
GALILEO 11 (268)
国际标识:
2015-079B
轨道中心:
EARTH
卫星名称:
伽利略0208星
卫星全名:
伽利略0208星导航星座 (GSAT0208 (GALILEO 11))
卫星状态:
在轨 (已飞行3740 天)
发射日期:
2015-12-17 UTC
国别 :
(ESA)
星等 :
--
轨道信息
数据来源 国际轨道数据
星历时间: 2026-03-12T19:20:38+0800
1天前
查看轨道信息
半长轴: 29600.274km
偏心率: 0.0004463
轨道倾角: 55.763°
近地点辐角 323.910°
升交点赤经 103.911°
平近点角 36.130°
近地点: 23208.926km
远地点: 23235.348km
周期: 844.702分钟
每日圈数: 1.704744
详细信息
平衡模式:
三轴稳定
覆盖范围:
全球
运营商:
欧盟空间计划局
运营商所在国:
法国大都会
使用方式:
暂无
卫星简介
伽利略定位系统(Galileo)是一个全球导航卫星系统,于2016年投入使用由欧盟通过ESA创建,由欧盟空间计划局(EUSPA)运营。该系统有两个地面操控站,并且在高纬度地区提供比其他系统更好的定位服务。该卫星仍在工作。
2D轨道图
3D轨道图
轨道高度分析图
轨道倾角分析图
轨道综合分析图
查看轨道综合分析图